Weather in Madeira Beach

United States     27°47′52″N   82°47′51″W
temp.,
°C
wind,
m/s
gust,
m/s
humid.,
%
clouds,
%
prec.,
mm/h
press.,
hPa
HPBL,
m
26 may, thu
thu2623:00+28e1261100 0.3 1019411
02:00+26ese887699 0.3 1018432
05:00+25se7979100 0.0 1017564
08:00+25se71080100 0.0 1019615
11:00+28sse6766100 0.0 10191045
14:00+28ssw7769100 0.0 1018540
17:00+28sw676520 0.0 1016500
20:00+28sw556795 0.0 1016597
27 may, fri
fri2723:00+27ssw567199 0.0 1017535
02:00+27ssw577219 0.3 1016609
05:00+27ssw667148 0.3 1015808
08:00+27s677199 0.4 10161011
11:00+28ssw67705 0.0 10171012
14:00+28ssw77650 0.1 1016965
17:00+28sw66650 0.0 1014869
20:00+27wsw67740 0.0 1014794
28 may, sat
sat2823:00+27wsw56720 0.0 1014756
02:00+26w44720 1.1 1014611
05:00+26w33720 0.6 1013440
08:00+26wsw22700 1.3 1013457
11:00+27wsw326510 0.4 1014853
14:00+28wsw546310 0.4 1014843
17:00+28wsw54590 0.0 1013832
20:00+28w43520 0.0 1013599
29 may, sun
sun2923:00+27nw22500 0.0 1014443
02:00+27n01490 0.0 1014345
05:00+27ne22540 0.0 1013478
08:00+26e33570 0.0 1015444
11:00+27ese23520 0.0 1016589
14:00+28sw44570 0.0 1015706
17:00+29wsw65580 0.0 1013569
20:00+28n666083 0.4 1016713
30 may, mon
mon3023:00+26se666895 0.4 1016242
02:00+25ese577080 0.6 1017389
05:00+25ese4674100 0.0 1017316
08:00+25e55798 0.0 1018361
11:00+28e556594 0.0 1018748
14:00+31ne455472 0.0 1017731
17:00+32n355079 0.0 10151034
20:00+25ssw557784 2.5 1017189